Wind_Speed
14 15 16 16 17 17 18 18 19 19 19 20 20 20 20 20 20 20 20 20 21 21 21 22 23 23 24 25 25 26 26 26 26 26 27 26 26 26
15 16 16 17 17 18 19 20 20 20 21 21 22 22 22 22 22 21 22 22 22 22 23 23 24 25 25 25 25 26 27 28 28 28 28 27 27 27
15 16 17 17 18 19 20 20 21 21 21 22 22 22 23 23 23 23 23 22 23 23 24 25 25 26 26 26 26 27 27 27 28 29 28 28 28 28
17 17 18 18 19 20 20 21 22 23 23 23 23 24 24 24 24 24 24 24 24 25 26 26 26 26 27 27 27 27 28 28 28 29 29 29 29 30
18 18 19 20 20 21 21 22 23 23 24 24 24 25 24 24 25 25 25 25 25 26 26 27 27 27 27 27 28 29 28 29 29 29 29 30 30 31
20 20 21 21 21 22 22 22 23 24 25 25 24 24 24 25 25 25 26 26 26 27 27 28 28 28 28 29 29 29 29 30 30 31 31 31 31 32
22 22 22 22 22 23 23 23 23 23 24 24 24 24 25 25 26 26 26 26 27 27 28 28 29 29 29 30 30 30 31 31 32 32 32 32 33 33
23 22 22 22 22 23 23 23 23 24 24 24 25 25 26 26 27 27 27 27 27 28 28 29 29 30 31 31 31 31 32 32 33 33 33 34 34 34
23 23 22 22 23 23 24 24 24 25 26 26 26 26 27 27 28 28 28 28 28 29 30 30 31 31 31 31 32 32 33 33 34 34 34 34 34 35
23 23 23 24 24 24 25 25 25 26 26 27 27 27 28 29 28 28 29 29 29 30 30 29 30 31 31 32 33 33 34 34 34 35 35 35 36 36
24 24 24 25 25 26 26 27 27 27 27 28 29 28 29 29 29 30 30 30 30 30 31 31 31 32 33 33 34 34 35 35 35 36 36 36 36 36
24 24 25 26 26 26 27 27 27 27 28 28 28 28 29 29 29 30 30 30 30 31 32 32 33 33 33 34 35 35 35 36 36 36 36 37 37 37
25 25 25 26 26 27 27 27 27 27 28 29 29 30 30 30 30 30 30 31 32 32 32 33 34 35 35 35 36 36 36 36 37 37 37 37 37 38
25 25 26 27 27 28 28 28 28 28 28 28 29 29 30 30 30 30 31 32 33 33 34 34 35 35 36 36 36 37 37 37 37 37 37 37 37 37
26 26 27 27 28 28 29 29 29 29 29 30 30 30 31 31 31 31 32 33 34 34 35 35 36 36 36 37 37 37 37 37 37 37 37 37 37 37
28 28 28 29 29 29 29 29 30 30 31 31 31 31 32 32 33 34 34 35 35 35 36 36 37 37 37 37 37 37 37 37 37 37 37 37 37 37
29 30 30 30 30 30 31 31 31 31 32 32 32 33 34 34 35 35 35 36 36 37 37 38 39 39 38 37 37 37 37 37 37 36 36 36 36 35
31 31 31 31 32 32 33 33 33 33 33 33 34 34 35 36 36 37 37 37 38 38 38 38 38 38 38 38 38 38 37 37 37 37 36 35 35 34
33 33 33 33 33 34 34 34 34 34 35 35 35 36 36 37 37 37 37 38 38 37 37 38 38 37 37 37 37 37 37 37 36 36 36 35 35 34
34 34 34 34 34 34 35 35 36 36 36 37 37 37 37 37 37 37 37 37 37 37 37 37 37 36 36 36 36 36 37 36 36 35 35 35 35 34
36 35 35 35 35 36 36 37 38 38 38 38 38 38 37 37 37 37 37 37 37 37 36 36 36 36 36 36 36 35 35 35 35 35 34 34 34 34
36 36 36 36 36 37 38 38 38 38 39 39 38 38 38 38 37 37 37 37 37 36 36 36 36 36 36 36 35 35 35 34 34 34 34 33 33 32
37 38 38 37 38 38 39 39 38 38 38 38 38 38 38 37 37 36 36 36 36 36 36 36 37 37 37 36 36 35 34 33 33 33 33 33 32 32
Wind_Direction
285 284 282 279 279 278 278 278 279 279 280 283 285 286 287 285 284 284 285 286 286 284 282 282 282 283 285 285 282 280 280 280 280 280 281 280 278 277
286 283 284 282 280 279 278 280 281 280 279 280 282 283 285 284 284 284 284 284 284 284 284 283 283 284 285 285 284 284 283 281 281 281 283 281 280 279
290 286 285 287 285 281 280 280 281 281 281 280 280 282 283 282 282 282 283 283 283 283 283 284 283 283 283 283 284 284 284 284 283 283 283 282 282 280
292 289 287 285 287 285 282 281 282 282 281 280 280 281 282 281 280 282 283 283 283 282 282 282 282 283 283 283 284 283 283 283 284 284 283 282 281 281
293 291 289 286 286 287 285 284 282 282 282 281 281 281 282 281 280 281 282 283 283 282 282 283 283 283 283 282 283 282 282 283 284 285 284 282 282 282
293 290 288 288 287 286 286 286 285 284 284 283 282 281 282 281 281 281 282 283 283 283 283 284 284 284 283 282 282 281 281 282 284 284 284 284 284 282
294 291 289 288 287 287 287 286 286 286 287 285 283 282 284 284 283 282 283 283 284 284 284 285 284 283 282 283 283 283 283 284 285 285 285 284 283 283
294 292 291 290 289 289 288 285 285 287 287 286 284 284 285 285 285 283 283 284 284 284 283 283 283 283 284 284 284 284 285 285 285 285 285 284 284 283
295 293 293 292 290 289 290 288 287 287 286 286 285 285 285 284 285 284 284 285 284 284 284 284 284 284 284 284 284 284 285 286 286 286 285 285 284 283
294 293 293 292 290 288 289 289 288 287 286 286 286 285 285 284 284 284 284 284 284 285 285 285 285 286 286 286 286 286 286 286 286 285 285 285 285 284
295 293 292 291 290 289 289 290 288 288 287 287 286 286 287 286 286 285 285 284 284 285 285 286 287 287 288 288 288 288 287 286 286 286 286 286 285 285
295 293 293 293 292 292 291 291 290 288 288 288 288 287 287 288 288 286 286 285 287 287 287 288 289 289 289 289 289 288 287 286 287 287 287 287 286 286
294 293 293 293 293 292 293 292 291 290 288 289 289 289 288 289 290 290 289 288 289 290 290 290 290 290 290 290 289 289 288 288 288 287 287 287 286 286
294 293 294 294 293 293 293 293 292 291 291 291 291 291 291 292 292 291 291 291 291 292 292 292 292 292 292 291 291 290 289 289 288 287 287 286 286 286
294 293 293 294 294 293 293 293 294 294 294 293 293 292 292 292 291 291 291 292 292 292 293 293 293 293 293 293 292 291 291 289 288 287 287 286 286 286
294 293 294 294 294 293 294 294 294 295 295 294 294 293 293 293 292 292 291 291 292 293 293 293 293 293 293 293 293 292 291 290 289 288 288 287 287 287
294 294 294 294 293 294 295 295 296 295 295 295 294 293 293 293 293 292 292 292 292 293 293 294 293 293 293 293 293 292 291 290 290 289 289 289 288 288
293 293 294 294 293 293 294 295 295 295 294 294 294 294 294 294 294 293 293 293 293 293 293 294 295 294 293 293 293 292 291 290 289 289 289 289 289 288
292 292 293 293 292 292 293 294 294 294 294 294 294 294 295 295 295 295 295 295 295 294 294 295 295 294 294 293 293 292 291 291 290 290 290 288 288 288
291 291 291 291 292 292 292 293 294 295 295 295 295 295 295 295 295 296 296 295 296 295 295 295 295 296 295 294 293 293 292 292 291 291 290 288 288 288
291 290 290 290 291 291 292 292 293 294 295 295 295 295 295 295 295 295 296 296 296 295 295 296 296 296 296 295 294 294 293 293 292 291 290 289 288 288
289 289 289 289 289 290 291 292 293 294 294 295 295 295 295 295 296 296 296 295 296 296 295 295 295 296 296 295 295 293 293 293 293 293 291 290 291 290
288 289 288 289 289 291 291 291 292 293 293 294 294 294 295 295 295 295 295 296 296 296 295 295 295 295 295 295 295 293 293 292 292 292 292 292 291 290
Height
5873 5873 5872 5871 5870 5870 5869 5869 5869 5868 5867 5866 5865 5863 5862 5862 5861 5860 5859 5857 5856 5855 5854 5854 5853 5852 5850 5849 5848 5847 5846 5845 5844 5843 5842 5841 5840 5840
5869 5868 5868 5867 5866 5865 5865 5864 5864 5863 5862 5861 5860 5859 5857 5856 5855 5854 5853 5852 5851 5850 5849 5848 5847 5846 5844 5843 5842 5841 5840 5839 5838 5836 5835 5834 5834 5833
5865 5864 5863 5862 5861 5860 5860 5859 5858 5858 5857 5856 5854 5853 5852 5851 5850 5848 5847 5846 5845 5844 5843 5842 5840 5839 5838 5837 5836 5834 5833 5832 5830 5829 5828 5827 5826 5825
5861 5860 5858 5857 5856 5855 5854 5853 5853 5852 5851 5850 5849 5847 5846 5844 5843 5842 5841 5840 5839 5838 5837 5835 5834 5832 5831 5830 5829 5827 5826 5825 5823 5822 5821 5819 5818 5817
5856 5855 5854 5852 5851 5850 5849 5848 5847 5845 5844 5843 5842 5841 5839 5838 5837 5836 5835 5834 5832 5831 5829 5828 5827 5825 5824 5823 5821 5820 5819 5817 5816 5814 5813 5811 5810 5809
5852 5850 5849 5847 5846 5845 5844 5842 5841 5839 5838 5837 5835 5834 5833 5831 5830 5829 5828 5827 5825 5824 5822 5821 5819 5818 5817 5815 5814 5812 5811 5809 5808 5806 5805 5803 5801 5800
5846 5845 5843 5842 5840 5839 5838 5837 5835 5834 5832 5830 5829 5828 5827 5825 5824 5822 5821 5819 5818 5816 5815 5813 5812 5810 5809 5807 5806 5804 5802 5801 5799 5798 5796 5794 5793 5791
5841 5839 5838 5836 5834 5833 5832 5830 5829 5828 5826 5824 5823 5821 5820 5818 5817 5815 5813 5812 5810 5809 5807 5805 5804 5802 5800 5799 5797 5795 5793 5792 5790 5788 5786 5785 5783 5782
5835 5833 5832 5830 5828 5827 5825 5823 5822 5821 5819 5818 5816 5815 5813 5811 5809 5808 5806 5804 5803 5801 5799 5797 5795 5793 5792 5790 5788 5786 5784 5782 5780 5778 5776 5775 5773 5771
5829 5828 5826 5824 5822 5821 5819 5817 5815 5814 5812 5810 5809 5807 5805 5803 5802 5800 5798 5796 5794 5792 5790 5789 5787 5784 5782 5781 5779 5776 5774 5772 5770 5768 5766 5764 5763 5761
5823 5821 5820 5818 5816 5814 5813 5811 5808 5806 5804 5803 5801 5799 5797 5795 5794 5792 5790 5788 5786 5784 5782 5780 5778 5776 5774 5771 5769 5766 5764 5762 5760 5757 5755 5753 5752 5750
5816 5814 5813 5811 5809 5807 5806 5803 5801 5799 5797 5795 5793 5791 5789 5787 5785 5783 5781 5779 5777 5775 5773 5771 5768 5766 5764 5762 5759 5756 5754 5751 5749 5747 5744 5742 5740 5738
5810 5808 5806 5804 5802 5801 5798 5796 5794 5792 5790 5788 5786 5784 5781 5779 5777 5774 5772 5770 5768 5766 5764 5762 5759 5756 5754 5752 5749 5746 5743 5741 5738 5736 5733 5731 5729 5727
5803 5801 5799 5797 5795 5793 5791 5789 5787 5785 5783 5780 5778 5776 5773 5771 5769 5766 5764 5762 5759 5757 5754 5752 5749 5746 5743 5741 5738 5735 5733 5730 5727 5725 5722 5720 5718 5715
5796 5794 5792 5790 5788 5786 5784 5782 5779 5777 5775 5772 5770 5768 5765 5763 5760 5758 5755 5752 5750 5747 5744 5741 5739 5736 5733 5730 5727 5724 5722 5719 5716 5714 5711 5709 5706 5704
5789 5787 5785 5782 5780 5777 5775 5773 5771 5769 5766 5764 5761 5759 5756 5754 5751 5748 5745 5743 5740 5737 5734 5731 5728 5725 5722 5719 5716 5713 5710 5707 5705 5702 5700 5697 5695 5693
5781 5779 5777 5774 5772 5769 5767 5765 5762 5760 5757 5755 5752 5750 5747 5744 5741 5738 5735 5732 5730 5727 5723 5720 5717 5714 5711 5708 5705 5702 5699 5696 5694 5691 5689 5686 5684 5681
5773 5770 5768 5766 5763 5761 5759 5756 5753 5751 5748 5745 5743 5740 5737 5734 5731 5728 5725 5722 5719 5715 5712 5709 5706 5703 5700 5697 5694 5691 5688 5685 5683 5680 5677 5675 5673 5671
5763 5761 5759 5756 5754 5752 5749 5747 5744 5741 5738 5735 5732 5729 5726 5723 5720 5717 5714 5711 5707 5704 5701 5698 5695 5692 5689 5686 5683 5680 5677 5674 5672 5669 5667 5664 5662 5660
5754 5751 5749 5746 5744 5742 5739 5737 5734 5731 5728 5725 5722 5719 5715 5712 5709 5706 5703 5700 5696 5693 5690 5687 5684 5681 5678 5675 5672 5669 5666 5663 5661 5658 5656 5653 5651 5649
5744 5741 5739 5736 5734 5732 5729 5726 5723 5720 5717 5714 5711 5708 5704 5701 5698 5695 5692 5688 5685 5682 5679 5676 5673 5670 5667 5664 5661 5658 5655 5652 5649 5647 5645 5643 5640 5638
5733 5731 5728 5726 5723 5720 5718 5715 5712 5709 5706 5702 5699 5696 5693 5690 5687 5684 5680 5677 5674 5671 5668 5665 5662 5659 5656 5653 5650 5647 5645 5642 5638 5636 5634 5632 5629 5627
5722 5719 5717 5714 5712 5709 5706 5703 5700 5697 5694 5691 5688 5685 5682 5679 5676 5673 5670 5667 5664 5661 5658 5655 5651 5648 5645 5642 5639 5636 5634 5631 5628 5626 5624 5621 5619 5617